Location: Bienvillers
(50.1719°N, 2.6161°E)
Time: 12:42:24
(UTC+00:00)

Daily predictions for brighter satellites

Satellite Brightness Start Highest point End
(mag) Time Altitude Azimuth Time Altitude Azimuth Time Altitude Azimuth
Cosmos 1980 3.9 16:20:09 10° SSW 16:25:51 81° WNW 16:31:35 10° NNE
NOAA 6 4.0 16:22:03 10° SSE 16:27:07 64° ENE 16:32:13 10° N
Okean O Rocket 2.3 16:23:18 10° SE 16:27:14 33° ENE 16:31:11 10° N
ISS -3.7 16:25:55 10° W 16:29:16 70° N 16:32:38 10° ENE
Cosmos 1633 Rocket 3.6 16:25:16 10° N 16:29:21 37° ENE 16:33:23 10° SE
H-2A R/B 2.8 16:27:42 10° SSE 16:31:34 87° ENE 16:35:30 10° NNW
Cosmos 1933 4.2 16:29:34 10° SSE 16:33:08 31° E 16:36:45 10° NNE
Meteor 2-12 Rocket 4.4 16:27:20 10° N 16:33:30 70° ENE 16:39:35 10° SSE
Spot 2 4.4 16:29:08 10° SSE 16:33:55 87° ENE 16:38:58 10° NNW
Nadezhda 1 Rocket 4.1 16:29:01 10° S 16:35:25 90° NE 16:41:52 10° N
Cosmos 2218 Rocket 4.3 16:29:51 10° N 16:35:41 43° ENE 16:41:30 10° SE
Cosmos 2366 rocket 4.3 16:30:47 10° N 16:36:39 42° ENE 16:42:25 10° SE
Meteor 1-25 Rocket 4.4 16:32:02 10° N 16:37:32 51° ENE 16:43:05 10° SSE
ERS-2 4.1 16:36:27 10° ENE 16:37:52 12° E 16:39:18 10° ESE
Cosmos 1867 3.6 16:33:34 10° SSW 16:38:59 77° SE 16:44:28 10° NE
Envisat 3.0 16:38:16 10° SSE 16:43:21 86° ENE 16:48:29 10° NNW
Lacrosse 5 rocket 1.1 16:43:31 10° SW 16:47:09 63° SE 16:50:15 13° ENE
YAOGAN 6 2.5 16:48:45 10° SSE 16:52:22 86° ENE 16:55:59 10° NNW
Cosmos 2322 Rocket 4.4 16:50:15 10° NW 16:52:23 12° NNW 16:54:30 10° N
Cosmos 2297 4.0 16:47:27 10° NNW 16:53:09 75° WSW 16:58:50 10° SSE
Cosmos 1606 2.7 16:50:51 10° S 16:54:45 90° ESE 16:58:39 10° N
AQUARIUS 4.1 16:53:08 10° SSE 16:57:34 63° ENE 17:02:02 10° N
CZ-4B R/B 2.7 16:56:26 16° ENE 16:57:35 19° E 16:59:55 10° SE
FengYun 1-2 T 4.3 16:52:18 10° SE 16:57:39 54° ENE 17:03:00 10° N
Landsat 5 3.6 16:54:20 10° NNE 16:58:48 78° ESE 17:03:20 10° S
SL-16 R/B 2.2 16:53:26 10° SSW 16:59:02 70° ESE 17:04:42 10° NNE
BREEZE-M DEB (TANK) 3.3 17:00:10 10° SW 17:02:20 24° SSE 17:03:26 16° ESE
Cosmos 1500 4.3 17:01:48 10° NNE 17:04:52 22° ENE 17:07:55 10° ESE
SMAP 3.0 17:01:55 10° SSE 17:06:35 85° ENE 17:11:17 10° NNW
Sich 1 3.9 17:02:43 10° NNW 17:06:59 53° W 17:11:12 10° S
Cosmos 1656 Rocket 4.1 17:03:49 10° NNW 17:09:08 40° NE 17:14:22 10° ESE
CZ-4C R/B 3.3 17:06:14 10° N 17:09:52 71° WNW 17:13:28 10° SSW
YAOGAN 1 3.9 17:09:19 17° E 17:10:31 19° ENE 17:13:36 10° NNE
Cosmos 1470 Rocket 3.6 17:07:40 10° N 17:11:57 55° ENE 17:16:11 10° SSE
Cosmos 783 Rocket 4.5 17:06:55 10° SSW 17:12:13 84° ESE 17:17:31 10° NNE
Cosmos 1151 Rocket 2.9 17:08:58 10° S 17:13:11 64° E 17:17:25 10° NNE
Cosmos 864 Rocket 4.4 17:11:24 10° N 17:17:45 77° E 17:23:59 10° SSE
Cosmos 2263 4.2 17:12:35 10° NNW 17:18:06 55° NE 17:23:36 10° SE
SL-8 Rocket 4.1 17:14:41 10° N 17:20:58 83° W 17:27:15 10° S
Cosmos 1515 Rocket 3.9 17:17:07 10° SSE 17:21:14 41° E 17:25:08 12° NNE
CZ-2C R/B 3.6 17:18:12 10° SE 17:22:28 30° ENE 17:26:39 10° N
Cosmos 1238 Rocket 3.9 17:20:41 10° NNE 17:24:03 26° ENE 17:27:58 10° SE
COSMO-SKYMED 1 3.3 17:23:06 21° NE 17:25:14 31° E 17:29:07 10° SSE
TELKOM 3 3.0 17:22:57 10° W 17:25:43 85° S 17:26:18 48° E
Cosmos 2360 Rocket 4.5 17:26:28 10° NW 17:28:17 11° NNW 17:30:07 10° N
X-37B 2.3 17:25:41 10° SW 17:28:18 24° SSE 17:29:28 19° SE
Cosmos 2333 Rocket 4.3 17:25:07 10° WNW 17:28:51 18° NNW 17:32:35 10° N
USA 281 3.5 17:23:27 10° ESE 17:29:37 45° NE 17:35:47 10° NNW
USA 81 4.2 17:25:18 10° N 17:30:36 80° W 17:35:53 10° S
Cosmos 2219 Rocket 4.3 17:27:03 10° WNW 17:30:48 18° NW 17:34:34 10° N
Nadezhda 3 Rocket 4.5 17:25:05 10° SSE 17:30:49 37° E 17:36:33 10° NNE
Helios 1A Rocket 3.6 17:33:25 30° E 17:33:53 31° ENE 17:37:28 10° N
Cosmos 2228 Rocket 3.9 17:30:00 10° SSE 17:33:54 29° E 17:34:29 29° ENE
Meteor 1-4 Rocket 2.3 17:31:32 10° S 17:35:06 74° E 17:37:26 20° NNE
Cosmos 1821 Rocket 4.1 17:30:32 10° N 17:36:38 51° ENE 17:42:45 10° SSE
H-2A R/B 2.8 17:35:17 22° E 17:37:22 30° ENE 17:41:46 10° N
Cosmos 1812 4.0 17:34:24 10° SSE 17:36:35 24° ESE 17:36:35 24° ESE
USA 267 3.4 17:34:11 21° E 17:38:34 60° NNE 17:44:59 10° WNW
Meteor 1-11 Rocket 4.3 17:34:17 10° N 17:39:36 36° ENE 17:44:59 10° SE
Cosmos 1939 Rocket 2.7 17:35:54 10° SSE 17:39:45 69° ENE 17:43:42 10° N
NOSS 3-3 (A) 4.5 17:32:47 10° NW 17:40:01 66° NE 17:47:58 11° ESE
NOSS 3-3 (C) 4.5 17:32:51 10° NW 17:40:06 65° NE 17:47:58 11° ESE
Cosmos 1328 Rocket 3.6 17:36:48 10° SSW 17:41:08 77° W 17:45:31 10° N
Cosmos 44 Rocket 3.4 17:36:36 10° NW 17:41:43 60° NE 17:45:08 21° ESE
Cosmos 1933 Rocket 3.5 17:37:32 10° N 17:42:02 77° E 17:46:30 10° SSE
CZ-4 R/B 1.8 17:41:27 35° E 17:42:04 37° ENE 17:45:51 10° N
BREEZE-M DEB (TANK) 4.4 17:41:49 10° SSE 17:42:35 11° SSE 17:42:53 11° SSE
Cosmos 1602 4.2 17:40:43 10° NNW 17:44:36 64° W 17:48:27 10° S
CSL-04 Rocket 4.3 17:44:04 30° ENE 17:44:53 31° ENE 17:49:30 10° N
IRS-1C Rocket 4.0 17:40:56 10° SSE 17:46:11 70° ENE 17:51:27 10° NNW
Cosmos 2181 Rocket 4.3 17:42:50 10° SSW 17:49:13 69° WNW 17:55:33 10° N
SL-24 R/B 4.0 17:49:33 44° ESE 17:49:33 44° ESE 17:52:58 10° S
Cosmos 2237 Rocket 3.9 17:45:46 10° W 17:50:31 27° NW 17:55:19 10° NNE
Cosmos 1680 Rocket 4.4 17:46:07 10° SSE 17:50:19 29° ESE 17:50:19 29° ESE
CZ-4B R/B 4.4 17:46:23 10° S 17:51:23 42° W 17:56:26 10° NNW
Cosmos 1603 3.8 17:49:12 10° S 17:54:38 54° ESE 17:56:56 33° NE
CZ-2D R/B 3.1 17:52:48 10° SSE 17:56:36 74° ENE 18:00:29 10° N
H-2A R/B 3.4 17:53:09 10° N 17:57:04 38° WNW 18:01:02 10° SW
Cosmos 2369 Rocket 2.6 17:52:14 10° NW 17:57:52 64° WSW 18:03:26 10° SSE
Cosmos 1943 3.3 17:52:34 10° S 17:58:02 51° ESE 17:59:58 36° ENE
Cosmos 1943 Rocket 3.5 17:53:50 10° NW 17:58:59 40° WSW 18:04:10 10° S
Cosmos 1538 Rocket 4.0 17:54:46 10° SSW 18:00:09 90° SW 18:03:44 22° NNE
Meteor 1-5 Rocket 4.2 17:54:15 10° N 18:00:12 76° ENE 18:05:58 10° SSE
Cosmos 1371 Rocket 4.2 17:58:05 10° NNW 18:03:05 46° ENE 18:03:40 44° ENE
Cosmos 1782 3.3 17:59:37 10° SSW 18:03:32 59° WNW 18:06:45 15° N
Okean O Rocket 3.5 17:59:41 10° SSW 18:03:35 31° W 18:07:31 10° NNW
Okean-O 2.5 18:00:36 10° SSE 18:04:59 66° ENE 18:09:24 10° N
ISS -3.6 18:02:51 10° WNW 18:05:55 71° NW 18:05:55 71° NW
ARGOS 3.7 18:08:32 38° NE 18:08:32 38° NE 18:12:49 10° N
CENTAUR R/B 3.3 18:03:06 10° S 18:07:44 30° ESE 18:07:44 30° ESE
Cosmos 2056 Rocket 3.7 18:04:17 10° NNW 18:09:23 46° ENE 18:09:29 46° ENE
ERS-2 2.4 18:10:45 41° N 18:11:51 66° WNW 18:15:28 10° SSW
SKYMED 2 3.5 18:11:44 36° NNE 18:13:30 90° WSW 18:17:50 10° SSW
NOSS 3-2 (C) 4.2 18:11:16 10° S 18:15:10 30° SE 18:15:10 30° SE
Cosmos 1869 Rocket 3.4 18:12:16 10° N 18:16:48 74° E 18:17:48 52° SSE
BREEZE-M DEB (TANK) 4.0 18:13:01 10° SW 18:19:51 36° SSE 18:19:59 35° SSE
Cosmos 1624 Rocket 4.0 18:20:54 10° NNW 18:25:56 61° NE 18:25:56 61° NE
Lacrosse 5 rocket 2.3 18:23:03 10° W 18:25:53 33° NW 18:25:53 33° NW
Meteor 1-10 Rocket 4.0 18:21:10 10° S 18:26:47 76° E 18:28:50 40° NNE
BREEZE-M DEB (TANK) 4.4 18:25:48 10° W 18:26:37 22° W 18:26:37 22° W
Cosmos 371 Rocket 3.3 18:23:36 10° NNW 18:28:01 65° NNE 18:28:01 65° NNE
CZ-4B R/B 3.2 18:29:34 27° WNW 18:29:51 27° WNW 18:32:36 10° SW
NOSS 3-2 (A) 3.2 18:35:32 10° SSW 18:41:12 70° SE 18:41:27 69° ESE
SL-16 R/B 3.9 18:38:51 10° WSW 18:43:41 28° NW 18:46:58 17° N
Cosmos 1535 Rocket 4.3 18:38:02 10° N 18:44:11 84° E 18:50:19 10° S
YAOGAN 1 3.1 18:46:28 58° W 18:46:28 58° W 18:50:32 10° NNW
USA 215 3.2 18:46:42 60° ESE 18:47:09 61° SE 18:53:37 10° SW
MOS 1 Rocket 3.6 18:52:44 75° NNW 18:53:07 80° WNW 18:58:30 10° SSW
USA 238 DEB 3.5 18:53:58 10° SW 19:00:34 80° SE 19:00:34 80° SE
USA 238 3.5 18:54:03 10° SW 19:00:39 80° SE 19:00:39 80° SE
COSMO-SKYMED 1 4.2 19:00:20 28° NW 19:01:24 32° WNW 19:05:16 10° SW
Cosmos 158 Rocket 4.5 18:56:42 10° SW 19:00:45 53° WSW 19:00:45 53° WSW
CZ-2C R/B 4.1 18:57:37 10° SSW 19:02:17 40° W 19:06:48 10° NNW
X-37B 4.1 19:01:36 10° WSW 19:01:44 11° WSW 19:01:44 11° WSW
Cosmos 923 Rocket 4.5 19:00:27 10° SW 19:05:13 58° W 19:05:13 58° W
Cosmos 1934 Rocket 4.3 18:59:46 10° NNW 19:06:06 67° W 19:12:20 10° S
USA 281 4.0 19:07:45 10° S 19:14:04 49° WSW 19:20:26 10° NW
H-2A R/B 2.9 19:15:55 44° WSW 19:16:37 47° W 19:21:34 10° NNW
CZ-4 R/B 3.6 19:17:28 23° W 19:17:28 23° W 19:20:31 10° NW
USA 267 3.3 19:21:33 71° SW 19:21:33 71° SW 19:28:06 10° WNW
CENTAUR R/B 3.9 19:52:05 10° SW 19:54:58 31° WSW 19:54:58 31° WSW
